Location: *
(41.0833°N, 73.4167°W)
Time: 15:21:47
(UTC+00:00)

SL-8 R/B - Pass Details

Date: 22 October 2019
Orbit: 656 x 668 km, 48.4° (Epoch: 14 November)

Event Time Altitude Azimuth Distance (km) Brightness Sun altitude
Exits shadow 10:40:11 - 252° (WSW) 2,474 6.1 -6.9°
Reaches altitude 10° 10:41:14 10° 254° (WSW) 2,074 5.7 -6.7°
Maximum altitude 10:45:59 63° 336° (NNW) 737 3.8 -5.8°
Drops below altitude 10° 10:50:44 10° 58° (ENE) 2,073 7.0 -4.9°
Sets 10:53:06 0° 61° (ENE) 2,985 8.0 -4.5°
